This demonstration page uses our WeatherBlox Daily Observations layout. Learn more.

Left ArrowRight Arrow

Hourly Observations for April 1, 2017

Temp ( °F °C ) Dew Point ( °F °C ) Humidity (%) Winds ( mph kmh ) Pressure ( in mb ) Visibility ( mi km ) Precip ( " mm )
1:59 am 01:59 Cloudy 58 14.4 55 12.8 90 90 W 10 17 29.71 1006 10 16 0.00 0.00
2:59 am 02:59 Partly Cloudy 57 13.9 53 11.7 87 87 W 6 9 29.70 1006 10 16 0.00 0.00
3:59 am 03:59 Clear 57 13.9 52 11.1 83 83 WSW 8 13 29.70 1006 10 16 0.00 0.00
4:59 am 04:59 Clear 55 12.8 49 9.4 80 80 W 13 20 29.73 1007 10 16 0.00 0.00
5:59 am 05:59 Clear 55 12.8 48 8.9 77 77 W 9 15 29.75 1008 10 16 0.00 0.00
6:59 am 06:59 Partly Cloudy 54 12.2 48 8.9 80 80 W 9 15 29.79 1009 10 16 0.00 0.00
7:59 am 07:59 Mostly Cloudy 55 12.8 49 9.4 80 80 NW 10 17 29.84 1011 10 16 0.00 0.00
8:59 am 08:59 Mostly Cloudy 57 13.9 49 9.4 74 74 N 7 11 29.87 1012 10 16 0.00 0.00
9:59 am 09:59 Mostly Cloudy 58 14.4 48 8.9 70 70 N 12 19 29.89 1012 10 16 0.00 0.00
10:59 am 10:59 Mostly Cloudy 60 15.6 47 8.3 62 62 NNW 9 15 29.90 1013 10 16 0.00 0.00
11:59 am 11:59 Mostly Cloudy 63 17.2 48 8.9 58 58 VRB 7 11 29.90 1012 10 16 0.00 0.00
12:59 pm 12:59 Mostly Cloudy 61 16.1 48 8.9 63 63 N 7 11 29.91 1013 10 16 0.00 0.00
1:59 pm 13:59 Cloudy 62 16.7 47 8.3 58 58 NW 5 7 29.91 1013 10 16 0.00 0.00
2:59 pm 14:59 Cloudy 59 15 48 8.9 67 67 Calm 29.91 1013 10 16 0.00 0.00
3:59 pm 15:59 Mostly Cloudy 60 15.6 47 8.3 62 62 ENE 7 11 29.92 1013 10 16 0.00 0.00
4:59 pm 16:59 Mostly Cloudy 61 16.1 46 7.8 58 58 ENE 7 11 29.93 1013 10 16 0.00 0.00
5:59 pm 17:59 Mostly Sunny 60 15.6 46 7.8 60 60 NE 9 15 29.95 1014 10 16 0.00 0.00
6:59 pm 18:59 Sunny 57 13.9 46 7.8 67 67 NE 10 17 29.97 1015 10 16 0.00 0.00
7:59 pm 19:59 Mostly Clear 54 12.2 45 7.2 72 72 NNE 12 19 30.01 1016 10 16 0.00 0.00
8:59 pm 20:59 Partly Cloudy 55 12.8 45 7.2 69 69 NNE 16 26 30.06 1018 10 16 0.00 0.00
9:59 pm 21:59 Clear 53 11.7 44 6.7 72 72 NNE 12 19 30.09 1019 10 16 0.00 0.00
10:59 pm 22:59 Clear 53 11.7 44 6.7 72 72 NNE 14 22 30.10 1019 10 16 0.00 0.00
11:59 pm 23:59 Mostly Clear 52 11.1 43 6.1 72 72 NNE 9 15 30.11 1020 10 16 0.00 0.00

Powered by AerisWeather